Starlink 6089

operational
NORAD ID: 56096 Int'l Des: 2023-046 Owner: SPXS Country: US Constellation: starlink
LEOCIRCULAR

About Starlink 6089

Description loading...

Live Position

Loading 3D Globe...

Upcoming Passes

Altitude History

Altitude vs Time

uPlot chart will show altitude changes over time

Two-Line Element Set

1 56096U 23046D 25305.54747491 .00000706 00000-0 67314-4 0 9995
2 56096 43.0041 135.4482 0001308 265.9254 94.1439 15.02534223142781
Epoch: Nov 1, 2025 • Age: 10 hours

Current Status

Altitude 559.2 km
Velocity 7.58 km/s
Sub-Earth Point -3.24°S, 77.9°W
Launch Date Mar 29, 2023
Age 2.5 years
Type internet

Technical Details

Classification Payload
Mass 305.00 kg
Dry Mass 290.00 kg
Total Mass 305.00 kg
Length 0.20 m
Diameter 2.80 m
Span 9.00 m
Shape Box + pan
Manufacturer SPXS
Bus Type Starlink
Phase Status In Orbit
Owner/State SPXS/US

Large Constellations

Loading constellations...